Waarnemingen

Advertentie
Mijn weer
Liscombe, Groot Brittannië (3710): temperatuur & dauwpunt: 18.02.2018 23:00:00 - 24.02.2018 23:00:00 (GMT)Liscombe, Groot Brittannië (3710): temperatuur -100cm: 18.02.2018 23:00:00 - 24.02.2018 23:00:00 (GMT)Liscombe, Groot Brittannië (3710): windsnelheid & windstoten: 18.02.2018 23:00:00 - 24.02.2018 23:00:00 (GMT)Liscombe, Groot Brittannië (3710): windrichting: 18.02.2018 23:00:00 - 24.02.2018 23:00:00 (GMT)Liscombe, Groot Brittannië (3710): luchtdruk: 18.02.2018 23:00:00 - 24.02.2018 23:00:00 (GMT)Liscombe, Groot Brittannië (3710): zicht: 18.02.2018 23:00:00 - 24.02.2018 23:00:00 (GMT)Liscombe, Groot Brittannië (3710): Zonneschijnduur: 18.02.2018 23:00:00 - 24.02.2018 23:00:00 (GMT)Liscombe, Groot Brittannië (3710): neerslag: 18.02.2018 23:00:00 - 24.02.2018 23:00:00 (GMT)
Datum & Tijd tt [°C] td [°C] tt -100cm [°C] ff [km/u] ff [kn] fx [km/u] fx [kn] dd ppp [hPa] vv [km] sd [min] rr [mm]
24.02.2018 23:00:00 -1,2 -5,2 - 28 15 - - O 1022,6 17 0 0,0
24.02.2018 22:00:00 -1,0 -5,5 - 29 16 48 26 O 1022,3 18 0 0,0
24.02.2018 21:00:00 -0,5 -5,7 - 31 17 50 27 O 1021,7 15 0 0,0
24.02.2018 20:00:00 0,3 -5,5 - 29 16 - - O 1020,9 20 0 0,0
24.02.2018 19:00:00 0,1 -3,3 - 28 15 - - ONO 1020,8 13 0 0,0
24.02.2018 18:00:00 0,3 -2,8 - 28 15 - - ONO 1020,2 11 36 0,0
24.02.2018 17:00:00 1,3 -2,9 - 29 16 - - ONO 1019,9 13 60 0,0
24.02.2018 16:00:00 2,1 -2,5 - 28 15 - - ONO 1020,0 15 60 0,0
24.02.2018 15:00:00 2,2 -2,8 - 29 16 - - ONO 1019,8 15 60 0,0
24.02.2018 14:00:00 2,4 -2,0 - 28 15 - - ONO 1019,8 16 60 0,0
24.02.2018 13:00:00 2,0 -1,7 - 22 12 - - O 1019,8 13 60 0,0
24.02.2018 12:00:00 0,7 -3,2 - 24 13 - - ONO 1020,3 12 60 0,0
24.02.2018 11:00:00 -0,2 -4,4 - 22 12 - - ONO 1020,6 13 60 0,0
24.02.2018 10:00:00 -0,9 -4,3 - 22 12 - - ONO 1020,5 11 60 0,0
24.02.2018 09:00:00 -2,3 -5,0 6,4 22 12 - - ONO 1020,8 10 24 0,0
24.02.2018 08:00:00 -3,3 -5,5 - 22 12 - - ONO 1020,6 8 0 0,0
24.02.2018 07:00:00 -3,0 -5,3 - 22 12 - - O 1019,5 9 0 0,0
24.02.2018 06:00:00 -2,5 -4,9 - 21 11 - - O 1018,9 9 0 0,0
24.02.2018 05:00:00 -2,6 -4,5 - 22 12 - - O 1018,3 8 0 0,0
24.02.2018 04:00:00 -2,2 -4,2 - 22 12 - - O 1018,1 7 0 0,0
24.02.2018 03:00:00 -2,1 -4,0 - 22 12 - - O 1018,2 6 0 0,0
24.02.2018 02:00:00 -1,9 -4,0 - 26 14 - - O 1018,3 7 0 0,0
24.02.2018 01:00:00 -2,0 -4,3 - 28 15 46 25 O 1018,2 7 0 0,0
24.02.2018 00:00:00 -2,2 -4,6 - 29 16 50 27 OZO 1018,4 8 - 0,0
23.02.2018 23:00:00 -2,1 -4,3 - 28 15 46 25 OZO 1018,3 11 0 0,0
23.02.2018 22:00:00 -1,9 -4,3 - 28 15 - - O 1018,0 12 0 0,0
23.02.2018 21:00:00 -1,5 -4,2 - 26 14 - - O 1017,9 14 0 0,0
23.02.2018 20:00:00 -1,0 -4,0 - 24 13 - - O 1017,9 15 0 0,0
23.02.2018 19:00:00 -0,3 -3,7 - 22 12 - - O 1017,5 18 0 0,0
23.02.2018 18:00:00 -0,1 -4,1 - 16 9 - - O 1017,6 17 24 0,0
23.02.2018 17:00:00 1,5 -4,0 - 18 10 - - OZO 1017,4 20 60 0,0
23.02.2018 16:00:00 2,6 -4,3 - 24 13 - - OZO 1017,6 21 60 0,0
23.02.2018 15:00:00 2,9 - - 24 13 - - OZO 1017,9 19 60 0,0
23.02.2018 14:00:00 2,6 - - 24 13 - - OZO 1018,7 18 60 0,0
23.02.2018 13:00:00 2,5 - - 22 12 - - OZO 1019,0 17 60 0,0
23.02.2018 12:00:00 1,2 - - 28 15 - - OZO 1019,8 13 60 0,0
23.02.2018 11:00:00 0,8 -3,2 - 28 15 - - OZO 1020,3 12 60 0,0
23.02.2018 10:00:00 -0,3 -3,1 - 26 14 46 25 O 1020,9 10 60 0,0
23.02.2018 09:00:00 -1,5 -3,2 6,5 26 14 - - O 1020,7 6 18 0,0
23.02.2018 08:00:00 -2,7 -3,6 - 22 12 - - O 1020,9 5 0 0,0
23.02.2018 07:00:00 -2,7 -3,7 - 22 12 - - O 1020,9 5 0 0,0
23.02.2018 06:00:00 -2,5 -3,6 - 21 11 - - O 1020,9 6 0 0,0
23.02.2018 05:00:00 -2,4 -3,6 - 16 9 - - O 1021,1 6 0 0,0
23.02.2018 04:00:00 -2,2 -3,6 - 18 10 - - O 1021,1 7 0 0,0
23.02.2018 03:00:00 -2,2 -3,8 - 16 9 - - O 1021,4 9 0 0,0
23.02.2018 02:00:00 -2,2 -4,2 - 18 10 - - O 1021,8 11 0 0,0
23.02.2018 01:00:00 -2,0 -4,5 - 21 11 - - O 1022,0 13 0 0,0
23.02.2018 00:00:00 -2,0 -4,6 - 18 10 - - O 1022,4 12 - 0,0
22.02.2018 23:00:00 -1,4 -3,9 - 21 11 - - O 1022,3 10 0 0,0
22.02.2018 22:00:00 -1,0 -3,3 - 22 12 - - O 1022,2 9 0 0,0
22.02.2018 21:00:00 -1,2 -3,1 - 18 10 - - O 1022,4 7 0 0,0
22.02.2018 20:00:00 -1,1 -2,9 - 16 9 - - ONO 1022,7 6 0 0,0
22.02.2018 19:00:00 -1,2 -2,9 - 15 8 - - ONO 1022,8 6 0 0,0
22.02.2018 18:00:00 -1,3 -3,5 - 11 6 - - ONO 1022,7 7 18 0,0
22.02.2018 17:00:00 0,8 -2,9 - 15 8 - - O 1022,0 12 6 0,0
22.02.2018 16:00:00 1,6 -2,2 - 18 10 - - O 1022,1 12 0 0,0
22.02.2018 15:00:00 2,4 -1,4 - 13 7 - - O 1022,2 14 0 0,0
22.02.2018 14:00:00 2,4 -1,5 - 15 8 - - O 1022,8 14 6 0,0
22.02.2018 13:00:00 2,4 -0,3 - 16 9 - - O 1023,3 9 12 0,0
22.02.2018 12:00:00 2,9 0,8 - 13 7 - - OZO 1023,5 12 0 0,0
22.02.2018 11:00:00 1,7 0,6 - 15 8 - - O 1024,1 6 0 0,2
22.02.2018 10:00:00 1,0 0,5 - 15 8 - - O 1024,2 4,8 6 0,0
22.02.2018 09:00:00 0,4 -0,4 6,5 15 8 - - NO 1024,0 11 24 0,0
22.02.2018 08:00:00 -0,9 -1,5 - 16 9 - - ONO 1024,1 9 0 0,0
22.02.2018 07:00:00 -0,8 -1,4 - 16 9 - - ONO 1024,1 8 0 0,0
22.02.2018 06:00:00 -0,6 -1,0 - 16 9 - - ONO 1024,1 9 0 0,0
22.02.2018 05:00:00 0,0 -0,4 - 16 9 - - ONO 1024,1 8 0 0,0
22.02.2018 04:00:00 0,6 0,1 - 16 9 - - ONO 1024,2 11 0 0,0
22.02.2018 03:00:00 0,6 0,0 - 16 9 - - O 1024,4 11 0 0,0
22.02.2018 02:00:00 -0,1 -0,7 - 11 6 - - ONO 1025,3 3,2 0 0,0
22.02.2018 01:00:00 1,7 0,9 - 11 6 - - O 1025,3 6 0 0,0
22.02.2018 00:00:00 1,8 1,2 - 11 6 - - ONO 1025,7 4,6 - 0,0
21.02.2018 23:00:00 2,4 1,9 - 11 6 - - ONO 1025,7 4,7 0 0,0
21.02.2018 22:00:00 0,3 -0,5 - 8 4 - - ONO 1026,6 4,5 0 0,0
21.02.2018 21:00:00 0,9 -0,2 - 13 7 - - NO 1026,7 13 0 0,0
21.02.2018 20:00:00 0,9 -0,5 - 13 7 - - ONO 1026,8 15 0 0,0
21.02.2018 19:00:00 2,9 1,0 - 21 11 - - ONO 1026,4 18 0 0,0
21.02.2018 18:00:00 2,5 0,8 - 16 9 - - NO 1026,4 13 30 0,0
21.02.2018 17:00:00 4,0 0,9 - 15 8 - - NNO 1026,1 15 60 0,0
21.02.2018 16:00:00 5,2 0,2 - 13 7 - - ONO 1026,0 19 60 0,0
21.02.2018 15:00:00 5,6 0,9 - 16 9 - - ONO 1026,2 21 54 0,0
21.02.2018 14:00:00 5,7 0,7 - 15 8 - - ONO 1026,6 27 60 0,0
21.02.2018 13:00:00 5,5 1,6 - 16 9 - - NO 1027,3 21 36 0,0
21.02.2018 12:00:00 5,7 2,3 - 18 10 - - NO 1027,4 27 36 0,0
21.02.2018 11:00:00 4,7 1,8 - 22 12 - - ONO 1027,6 26 54 0,0
21.02.2018 10:00:00 4,4 1,9 - 18 10 - - ONO 1028,0 25 24 0,0
21.02.2018 09:00:00 3,8 2,9 6,2 13 7 - - ONO 1027,8 13 0 0,0
21.02.2018 08:00:00 3,4 2,9 - 13 7 - - ONO 1027,5 12 0 0,0
21.02.2018 07:00:00 3,2 2,3 - 13 7 - - NO 1027,5 24 0 0,0
21.02.2018 06:00:00 3,4 1,9 - 11 6 - - NO 1027,5 17 0 0,0
21.02.2018 05:00:00 3,4 1,6 - 11 6 - - NNO 1027,2 35 0 0,0
21.02.2018 04:00:00 3,2 1,7 - 8 4 - - NNO 1027,0 28 0 0,0
21.02.2018 03:00:00 3,1 1,2 - 11 6 - - NO 1027,3 30 0 0,0
21.02.2018 02:00:00 3,1 0,5 - 16 9 - - NNO 1026,7 30 0 0,0
21.02.2018 01:00:00 2,8 0,7 - 26 14 - - NNO 1027,1 30 0 0,0
21.02.2018 00:00:00 1,8 0,3 - 16 9 - - N 1027,8 30 - 0,0
20.02.2018 23:00:00 2,3 1,2 - 18 10 - - N 1027,5 30 0 0,0
20.02.2018 22:00:00 2,3 1,2 - 21 11 - - N 1027,7 24 0 0,0
20.02.2018 21:00:00 2,6 1,8 - 15 8 - - NNW 1027,6 16 0 0,0
20.02.2018 20:00:00 3,4 2,8 - 26 14 - - NNW 1026,8 12 0 0,0
20.02.2018 19:00:00 3,7 2,6 - 24 13 - - NNW 1026,4 19 0 0,0
20.02.2018 18:00:00 4,1 2,1 - 18 10 - - NW 1025,8 22 30 0,0
20.02.2018 17:00:00 6,1 1,6 - 22 12 - - NNW 1025,1 28 60 0,0
20.02.2018 16:00:00 7,9 1,3 - 24 13 - - NNW 1024,5 40 60 0,0
20.02.2018 15:00:00 9,1 1,4 - 21 11 - - NNW 1024,1 40 60 0,0
20.02.2018 14:00:00 9,6 2,9 - 22 12 - - N 1024,3 35 60 0,0
20.02.2018 13:00:00 8,8 2,8 - 26 14 - - NNO 1024,5 40 60 0,0
20.02.2018 12:00:00 8,4 3,9 - 29 16 48 26 N 1024,7 30 60 0,0
20.02.2018 11:00:00 6,2 3,7 - 31 17 46 25 NNW 1025,2 24 18 0,0
20.02.2018 10:00:00 5,3 3,0 - 34 18 50 27 NNW 1024,9 25 54 0,0
20.02.2018 09:00:00 5,1 4,0 6,0 34 18 55 30 N 1024,4 22 24 0,0
20.02.2018 08:00:00 3,4 2,8 - 22 12 - - NNW 1024,1 17 0 0,0
20.02.2018 07:00:00 4,0 3,1 - 22 12 46 25 N 1022,9 21 0 0,0
20.02.2018 06:00:00 4,2 3,4 - 29 16 50 27 NNW 1022,3 23 0 0,0
20.02.2018 05:00:00 4,6 4,5 - 28 15 - - N 1022,1 22 0 0,0
20.02.2018 04:00:00 6,1 6,1 - 22 12 - - N 1021,5 15 0 0,0
20.02.2018 03:00:00 6,9 6,9 - 22 12 - - NNW 1021,3 1,6 0 0,0
20.02.2018 02:00:00 7,1 7,1 - 18 10 - - NNW 1021,2 2,2 0 0,0
20.02.2018 01:00:00 5,9 5,9 - 16 9 - - NNW 1021,3 5 0 0,0
20.02.2018 00:00:00 6,7 6,7 - 16 9 - - NNW 1021,0 3,2 - 0,0
19.02.2018 23:00:00 6,7 6,7 - 15 8 - - NNW 1020,5 9 0 0,0
19.02.2018 22:00:00 7,3 7,3 - 16 9 - - NNW 1020,3 9 0 0,0
19.02.2018 21:00:00 7,3 7,3 - 15 8 - - NW 1020,2 10 0 0,0
19.02.2018 20:00:00 7,4 7,4 - 15 8 - - NNW 1020,0 7 0 0,0
19.02.2018 19:00:00 7,3 7,3 - 16 9 - - NW 1020,0 2,3 0 0,0
19.02.2018 18:00:00 7,5 7,5 - 15 8 - - NW 1019,8 8 0 0,0
19.02.2018 17:00:00 8,0 8,0 - 13 7 - - NW 1019,6 4,2 0 0,0
19.02.2018 16:00:00 8,6 8,6 - 13 7 - - NW 1019,2 0,9 0 0,0
19.02.2018 15:00:00 9,1 9,1 - 13 7 - - NW 1019,0 10 0 0,0
19.02.2018 14:00:00 9,0 9,0 - 15 8 - - NW 1019,1 1,8 0 0,0
19.02.2018 13:00:00 8,9 8,9 - 16 9 - - NW 1019,3 1,4 0 0,0
19.02.2018 12:00:00 8,9 8,9 - 15 8 - - NW 1019,4 4,6 0 0,0
19.02.2018 11:00:00 8,4 8,4 - 13 7 - - WNW 1019,3 0,5 0 0,0
19.02.2018 10:00:00 8,4 8,4 - 15 8 - - NW 1019,2 1,3 0 0,0
19.02.2018 09:00:00 8,2 8,2 6,0 11 6 - - NW 1019,0 5 0 0,0
19.02.2018 08:00:00 8,2 8,2 - 15 8 - - NW 1018,9 2,2 0 0,0
19.02.2018 07:00:00 8,0 8,0 - 9 5 - - WNW 1018,7 0,3 0 0,0
19.02.2018 06:00:00 8,0 8,0 - 13 7 - - NW 1018,3 0,4 0 0,2
19.02.2018 05:00:00 7,9 7,9 - 13 7 - - WNW 1018,3 0,5 0 0,0
19.02.2018 04:00:00 8,0 8,0 - 9 5 - - WNW 1018,5 0,2 0 0,0
19.02.2018 03:00:00 7,6 7,6 - 13 7 - - WNW 1018,7 2,1 0 0,2
19.02.2018 02:00:00 7,2 7,2 - 11 6 - - WNW 1019,0 0,3 0 0,0
19.02.2018 01:00:00 6,9 6,9 - 11 6 - - WNW 1019,4 0,5 0 0,2
19.02.2018 00:00:00 6,5 6,5 - 9 5 - - WNW 1019,6 1,5 - 0,2
18.02.2018 23:00:00 6,5 6,5 - 8 4 - - W 1019,7 1,1 0 0,0

tt = temperatuur
td = dauwpunt
tt -100cm = temperatuur -100cm
ff = windsnelheid
fx = windstoten
dd = windrichting
ppp = luchtdruk
vv = zicht
sd = Zonneschijnduur
rr = neerslag

Weerstations in de omgeving